Location: Trout Lake
(45.9980°N, 121.5270°W)
Time: 21:08:15
(UTC-07:00)

Daily predictions for brighter satellites

Satellite Brightness Start Highest point End
(mag) Time Altitude Azimuth Time Altitude Azimuth Time Altitude Azimuth
USA 234 3.4 20:27:04 10° ESE 20:33:36 75° NNE 20:40:08 10° NW
ERBS 3.0 20:31:45 10° WNW 20:35:07 52° SW 20:38:30 10° SSE
Cosmos 2242 Rocket 4.2 20:32:31 10° SSE 20:36:39 37° E 20:40:48 10° NNE
Cosmos 2322 Rocket 2.6 20:32:23 10° S 20:37:33 40° ESE 20:42:45 10° NE
Cosmos 1825 2.5 20:37:17 10° N 20:40:59 46° ENE 20:44:39 10° SSE
Cosmos 1315 Rocket 3.2 20:37:28 10° NNW 20:41:33 70° W 20:45:33 10° S
Meteor 2-20 4.5 20:36:42 10° N 20:42:51 80° E 20:48:59 10° SSE
GRACE-1 4.3 20:43:43 10° N 20:46:27 65° W 20:49:09 10° S
Cosmos 1627 Rocket 4.5 20:40:26 10° N 20:46:40 72° E 20:52:48 10° SSE
GRACE-2 4.3 20:44:06 10° N 20:46:50 65° W 20:49:32 10° S
Abrixas rocket 2.1 20:43:47 10° WSW 20:47:05 86° SSE 20:50:22 10° ENE
ERS-1 Rocket 3.9 20:42:47 10° SE 20:47:08 31° ENE 20:51:30 10° N
Cosmos 2360 Rocket 3.5 20:43:39 10° SE 20:47:33 19° E 20:51:28 10° NE
Cosmos 1980 Rocket 2.7 20:42:19 10° SW 20:47:58 68° WNW 20:53:41 10° NNE
Cosmos 2195 Rocket 4.5 20:42:03 10° N 20:48:12 75° E 20:54:19 10° SSE
Cosmos 1933 4.4 20:46:00 10° SSE 20:49:25 27° E 20:52:49 10° NNE
CZ-2D R/B 4.1 20:48:22 10° S 20:52:10 54° W 20:56:01 10° NNW
Cosmos 2279 Rocket 4.3 20:47:24 10° SSE 20:53:20 48° E 20:59:17 10° NNE
Cosmos 220 Rocket 4.2 20:51:00 10° NNW 20:55:28 79° WSW 20:59:55 10° SSE
Resurs 01 Rocket 2.8 20:51:29 10° S 20:55:43 44° W 21:00:01 10° NNW
CZ-4C R/B 4.5 20:51:14 10° NNW 20:56:12 22° NNE 21:01:38 10° ENE
SAR-Lupe-4 3.5 20:53:19 10° SSE 20:56:54 83° ENE 21:00:31 10° NNW
SeaSat 1 3.9 20:54:06 10° E 20:58:04 25° NE 21:02:03 10° N
CENTAUR R/B 3.9 20:55:42 10° WSW 21:01:41 45° NW 21:08:31 10° NNE
ATLAS 5 CENTAUR R/B 2.7 20:59:55 10° NNW 21:05:41 57° NE 21:11:12 14° ESE
SL-16 R/B 2.2 21:00:22 10° SSW 21:05:58 65° ESE 21:11:36 10° NNE
Cosmos 1992 Rocket 4.2 21:02:34 10° S 21:07:37 51° ESE 21:12:42 10° NNE
Cosmos 1862 3.3 21:03:55 10° N 21:07:57 67° E 21:11:57 10° SSE
CZ-4B DEB 2.6 21:05:35 10° SSE 21:08:36 89° WSW 21:11:40 10° NNW
Cosmos 1408 2.7 21:05:19 10° NNW 21:09:02 76° W 21:12:41 10° S
Sich 1 Rocket 4.3 21:09:21 10° N 21:13:29 36° ENE 21:16:38 16° SE
SAR-Lupe-1 4.3 21:10:47 10° S 21:14:21 71° WSW 21:17:57 10° NNW
SJ-11-01 4.3 21:11:17 10° SSE 21:15:58 87° WSW 21:20:40 10° NNW
ARGOS 4.0 21:15:37 15° ESE 21:19:18 33° ENE 21:24:02 10° N
H-2A R/B 4.3 21:18:22 10° ENE 21:19:45 11° ENE 21:21:08 10° NE
Cosmos 1908 Rocket 4.0 21:16:48 10° N 21:20:57 42° ENE 21:23:48 18° SE
Helios 1B rocket 2.6 21:17:09 10° N 21:21:17 77° WNW 21:25:22 10° SSW
Lacrosse 4 Rocket 2.4 21:18:38 10° NW 21:22:46 45° WSW 21:26:58 10° S
Cosmos 1939 Rocket 3.0 21:19:31 10° S 21:23:34 74° WSW 21:27:34 10° NNW
Milstar 3 4.4 21:18:42 10° SW 21:23:34 18° SSW 21:27:20 12° SSE
Cosmos 2278 Rocket 4.3 21:20:32 10° N 21:23:38 15° NE 21:26:44 10° ENE
BREEZE-M DEB (TANK) 4.4 21:20:45 10° W 21:25:45 84° SSW 21:47:02 11° ESE
Cosmos 1844 Rocket 3.8 21:25:56 10° N 21:30:46 29° NE 21:34:06 17° E
USA 186 4.4 21:31:29 10° SW 21:33:17 16° W 21:35:12 10° NW
Meteor 1-29 3.6 21:31:01 10° N 21:34:27 59° WNW 21:37:51 10° SSW
SPOT 5 3.4 21:31:58 21° SE 21:34:47 41° ENE 21:39:08 10° N
Cosmos 1782 Rocket 4.3 21:31:04 10° N 21:35:07 36° ENE 21:37:03 24° ESE
Meteor 1-26 Rocket 4.4 21:32:54 10° S 21:38:24 53° E 21:44:01 10° NNE
Cosmos 1867 3.6 21:34:00 10° NNW 21:39:30 76° NE 21:42:54 24° SE
USA 267 4.1 21:34:14 10° NE 21:40:32 52° NNW 21:46:50 10° W
Cosmos 1733 Rocket 3.8 21:36:15 10° NNW 21:40:36 53° W 21:44:55 10° S
Okean 2 Rocket 4.1 21:37:29 10° N 21:41:33 32° ENE 21:43:11 25° ESE
Cosmos 968 Rocket 3.4 21:38:55 10° NNW 21:44:08 77° ENE 21:47:23 23° SSE
H-2A R/B 2.9 21:42:51 22° ESE 21:45:04 32° ENE 21:49:26 10° N
YAOGAN 6 2.8 21:42:32 18° S 21:45:09 67° WSW 21:48:46 10° NNW
Cosmos 1862 Rocket 4.1 21:46:05 10° SSW 21:50:30 60° WNW 21:54:58 10° N
Atlas Centaur 2 4.0 21:46:43 10° SW 21:52:16 23° SSE 21:53:59 21° SSE
MetOp-A 4.1 21:48:56 21° SSE 21:52:32 80° ENE 21:57:55 10° NNW
Cosmos 2219 Rocket 3.8 21:53:26 17° E 21:53:26 17° E 21:56:08 10° ENE
Envisat 4.4 21:50:45 10° SSW 21:55:22 35° W 22:00:02 10° NNW
Okean 1-7 3.4 21:57:20 34° SE 21:58:38 44° E 22:02:50 10° NNE
Meteor 2-10 Rocket 3.9 22:03:51 10° SSW 22:09:40 76° WNW 22:15:29 10° N
Cosmos 1703 Rocket 3.5 22:08:02 25° S 22:10:38 87° ESE 22:15:04 10° N
Cosmos 2263 Rocket 3.3 22:06:50 10° NW 22:11:55 37° WSW 22:15:57 15° SSW
MOS 1-B Rocket 3.8 22:10:05 28° SSE 22:13:20 83° ENE 22:18:58 10° NNW
Meteor 1-14 Rocket 4.3 22:08:05 10° NNW 22:13:46 80° W 22:17:08 26° S
Cosmos 2237 4.3 22:10:01 20° S 22:13:49 56° ESE 22:19:25 10° NE
Cosmos 2151 Rocket 4.4 22:11:13 10° N 22:15:17 34° ENE 22:15:46 33° E
USA 234 4.2 22:13:05 20° S 22:16:55 38° SW 22:22:56 10° WNW
YAOGAN 11 4.4 22:15:12 30° S 22:17:14 63° WSW 22:21:33 10° NNW
Landsat 7 4.2 22:16:31 39° ESE 22:17:44 49° ENE 22:22:19 10° N
Nimbus 7 Rocket 4.4 22:14:37 10° NNE 22:20:32 66° ESE 22:23:50 27° S
SL-08 RB Rocket 3.6 22:19:52 43° SSE 22:21:24 88° ENE 22:25:59 10° NNW
Cosmos 2322 Rocket 3.8 22:16:29 10° WSW 22:21:38 36° NW 22:26:49 10° NNE
Cosmos 2221 Rocket 3.4 22:20:25 38° S 22:22:07 87° E 22:26:35 10° N
COSMOS 2428 2.8 22:20:52 36° SSE 22:22:47 51° ESE 22:28:18 10° NE
Cosmos 2266 Rocket 4.2 22:16:49 10° NNW 22:23:03 69° W 22:27:17 22° S
Abrixas rocket 2.8 22:20:48 10° W 22:24:02 53° N 22:24:28 48° NNE
Meteor 1-25 Rocket 4.1 22:19:49 10° NNW 22:25:27 86° W 22:27:52 35° S
ERS-1 Rocket 4.2 22:22:07 15° SSW 22:25:48 37° W 22:30:28 10° NNW
CARTOSAT-1 4.2 22:26:33 39° E 22:26:57 40° ENE 22:31:00 10° N
Cosmos 1633 3.6 22:27:13 10° N 22:30:04 33° NE 22:30:04 33° NE
Cosmos 2360 Rocket 2.5 22:25:19 10° SW 22:30:57 69° WNW 22:36:38 10° NNE
SPOT 1/Viking Rocket 3.5 22:30:31 40° S 22:32:27 83° WSW 22:37:42 10° NNW
Terra 2.2 22:32:07 44° E 22:32:52 48° ENE 22:37:27 10° N
Cosmos 1606 3.3 22:34:54 43° NE 22:34:54 43° NE 22:37:51 10° NNE
SeaSat 1 2.7 22:33:39 40° S 22:35:16 60° WSW 22:40:10 10° NW
Cosmos 1844 3.8 22:31:26 10° NNW 22:37:07 66° ENE 22:38:38 47° ESE
Cosmos 2322 4.0 22:35:58 10° SW 22:41:38 67° WNW 22:47:21 10° NNE
Meteor 1-20 Rocket 4.3 22:36:42 10° NNW 22:42:15 71° W 22:44:24 38° S
Cosmos 1244 Rocket 4.4 22:39:56 10° N 22:46:12 87° E 22:48:24 44° S
CZ-4C R/B 3.3 22:39:33 10° NNW 22:46:19 53° NE 22:49:47 31° ESE
Cosmos 1777 Rocket 4.3 22:44:17 10° NNW 22:49:29 59° WSW 22:50:52 44° SSW
ATLAS 5 CENTAUR R/B 3.6 22:44:56 10° NW 22:50:17 34° WSW 22:52:46 25° SSW
SL-16 R/B 4.5 22:45:58 10° WSW 22:50:34 25° NW 22:55:11 10° N
H-2A R/B 1.9 22:54:58 87° S 22:55:02 89° W 22:59:24 10° NNW
Meteor 2-6 Rocket 4.2 22:54:49 49° S 22:56:32 80° E 23:02:30 10° NNE
Cosmos 1553 Rocket 4.0 22:57:15 52° SE 22:58:31 62° E 23:04:39 10° NNE
Iridium 4 Rocket 3.7 22:54:58 10° N 22:58:15 41° NE 22:58:15 41° NE
NOSS 0 Rocket 4.4 22:59:31 41° E 22:59:31 41° E 23:04:52 10° NE
Cosmos 1782 3.0 22:59:04 65° W 22:59:07 65° W 23:03:08 10° N
ARGOS 4.2 22:57:07 26° SW 22:59:27 38° W 23:04:28 10° NNW
SL-08 R/B 4.4 22:54:00 10° N 23:00:10 73° E 23:01:29 56° SE
NOSS 3-1 (C) 3.4 23:01:06 54° ESE 23:01:07 54° ESE 23:07:24 10° NE
IGS 5A 3.5 23:02:23 76° N 23:02:23 76° N 23:06:15 10° NNW
Cosmos 2333 Rocket 2.5 23:03:17 49° E 23:03:17 49° E 23:08:29 10° NE
Cosmos 2333 4.1 23:01:25 41° SSW 23:03:35 89° NW 23:09:23 10° NNE
USA 229 DEB 3.9 22:58:31 10° SW 23:05:21 73° NW 23:12:21 10° NE
USA 229 3.9 22:58:37 10° SW 23:05:27 73° NW 23:12:27 10° NE
Cosmos 2237 Rocket 3.0 23:08:11 36° E 23:08:11 36° E 23:12:22 10° NE
Cosmos 2278 Rocket 2.2 23:03:15 10° NNW 23:08:53 65° ENE 23:09:39 58° E
Cosmos 1844 Rocket 3.1 23:09:32 10° NW 23:14:55 51° WSW 23:15:46 47° SW
ASTEX 1 3.4 23:15:38 68° SW 23:16:03 72° W 23:21:04 10° N
NOSS 3-1 (A) 3.7 23:16:58 48° E 23:16:58 48° E 23:22:25 10° NE
Cosmos 1346 Rocket 3.8 23:19:44 42° NNE 23:19:44 42° NNE 23:22:27 10° NNE
Cosmos 1300 Rocket 3.8 23:14:52 10° N 23:18:35 63° N 23:18:35 63° N
H-2A R/B 3.1 23:23:29 31° WSW 23:24:27 34° W 23:28:57 10° NNW
Meteor 1-5 Rocket 4.3 23:19:04 10° N 23:24:37 60° ENE 23:24:53 59° E
DMSP B5D2-2 4.3 23:19:24 10° N 23:24:39 66° WNW 23:25:45 51° SW
S3M 3.9 23:26:47 61° SSW 23:27:57 85° W 23:34:13 10° N
Meteor 1-27 Rocket 3.7 23:31:13 69° SW 23:31:53 80° WNW 23:37:30 10° N
Timation 1 Rocket 4.2 23:26:29 10° NNW 23:32:31 74° ENE 23:33:03 69° ESE
Geosat 4.1 23:27:31 10° NNE 23:32:33 72° WNW 23:33:11 63° WSW
Cosmos 1386 Rocket 4.4 23:27:26 10° N 23:33:54 85° E 23:34:42 70° SSE
Cosmos 2298 Rocket 4.1 23:29:00 10° NNW 23:34:15 67° ENE 23:34:15 67° ENE
Cosmos 1709 Rocket 4.2 23:28:08 10° N 23:34:25 55° ENE 23:35:00 53° E
Cosmos 2219 Rocket 2.2 23:35:04 64° SW 23:35:54 77° WNW 23:41:34 10° NNE
CZ-4B R/B 3.5 23:35:57 10° NNE 23:40:16 71° NNW 23:40:16 71° NNW
Cosmos 1378 Rocket 4.5 23:46:36 45° NNE 23:46:36 45° NNE 23:49:43 10° NNE
ATLAS 3B R/B 3.8 23:43:45 10° NNW 23:50:04 36° NE 23:53:17 24° E
Meteor 1-11 Rocket 4.3 23:47:38 10° NNW 23:52:52 45° W 23:53:15 44° WSW
